sat.trackr.live / text

‹ back to catalog

STARLINK-32464

NORAD 62140 · 2024-224B

PAYLOAD ACTIVE UNKNOWN

§ Identity

Operator
Country
US
Launch date
2024-11-30
Launch site
AFETR
Launch vehicle
Mass (kg)
RCS (m²)

Purposes: comms

External: N2YO · Heavens-Above · Gunter

§ Orbital elements

Epoch: 2026-05-25T02:36:38.077056Z

Period
94.27 min
Inclination
43.0007°
Eccentricity
0.0001275
Mean motion
15.27595686 rev/d
Perigee alt
482.1 km
Apogee alt
483.9 km
Semi-major
6,861.1 km
B*
5.4783e-4
RAAN
86.8476°
Arg perigee
272.9543°
Mean anomaly
87.1163°
Rev number
8,410

§ Raw data

STARLINK-324641 62140U 24224B   26145.10877404  .00014850  00000+0  54783-3 0  99932 62140  43.0007  86.8476 0001275 272.9543  87.1163 15.27595686 84108

JSON: /api/v1/satellites/62140 · /tle

For live sub-satellite position, see the globe view (requires WebGL).

§ Visibility from observer

Set your observer location to see the next 7 days of passes ≥ 10°. The values pass through the URL so the page stays shareable.

No JS? Fill the form by hand. The geolocation button needs JavaScript.